sat.trackr.live / text

‹ back to catalog

STARLINK-34416

NORAD 64619 · 2025-137AB

PAYLOAD ACTIVE UNKNOWN

§ Identity

Operator
Country
US
Launch date
2025-06-25
Launch site
AFETR
Launch vehicle
Mass (kg)
RCS (m²)

Purposes: comms

External: N2YO · Heavens-Above · Gunter

§ Orbital elements

Epoch: 2026-05-24T23:08:00.652416Z

Period
94.11 min
Inclination
53.1591°
Eccentricity
0.0001149
Mean motion
15.30195837 rev/d
Perigee alt
474.4 km
Apogee alt
476.0 km
Semi-major
6,853.4 km
B*
3.2033e-4
RAAN
340.8854°
Arg perigee
83.0652°
Mean anomaly
277.0479°
Rev number
5,241

§ Raw data

STARLINK-344161 64619U 25137AB  26144.96389644  .00009139  00000+0  32033-3 0  99952 64619  53.1591 340.8854 0001149  83.0652 277.0479 15.30195837 52413

JSON: /api/v1/satellites/64619 · /tle

For live sub-satellite position, see the globe view (requires WebGL).

§ Visibility from observer

Set your observer location to see the next 7 days of passes ≥ 10°. The values pass through the URL so the page stays shareable.

No JS? Fill the form by hand. The geolocation button needs JavaScript.